Location: LDNL
(36.4545°S, 141.6685°E)
Time: 04:15:12
(UTC+11:00)

Vanguard 2 - Pass Details

Date: 17 August 2022
Orbit: 552 x 2934 km, 32.9° (Epoch: 06 October)

Event Time Altitude Azimuth Distance (km) Brightness Sun altitude
Rises 11:59:01 0° 357° (N) 6,034 12.9 39.3°
Reaches altitude 10° 12:05:33 10° 17° (NNE) 5,406 13.1 39.5°
Maximum altitude 12:13:43 16° 47° (NE) 5,221 12.6 39.8°
Drops below altitude 10° 12:22:17 10° 76° (ENE) 5,763 12.3 40.0°
Sets 12:29:32 0° 95° (E) 6,653 12.3 40.1°
